Weather History for Silver Bay, MN

Change the Weather History Date:

Monday, January 28, 2013

  Actual Average Record
Temperature  
Mean Temperature 28 °F -  
Max Temperature 33 °F 21 °F 37 °F (2008)
Min Temperature 24 °F 2 °F -20 °F (2009)
Degree Days  
Heating Degree Days 36    
Moisture  
Dew Point 25 °F    
Average Humidity 85    
Maximum Humidity 93    
Minimum Humidity 69    
Precipitation  
Precipitation 0.04 in - - ()
Sea Level Pressure  
Sea Level Pressure 29.81 in    
Wind  
Wind Speed 1 mph (SSE)    
Max Wind Speed 7 mph    
Max Gust Speed -    
Visibility 8 miles    
Events Snow    
Averages and records for this station are not official NWS values.
T = Trace of Precipitation, MM = Missing Value Source: NWS Daily Summary

Daily Weather History Graph

Daily Weather History Graph

Search for Another Location

Airport:

Trip Planner

Search our weather history database for the weather conditions in past years. The results will help you decide how hot, cold, wet, or windy it might be!

Date:

Astronomy

Jan. 28, 2013 Rise Set
Actual Time 7:35 AM CST 5:02 PM CST
Civil Twilight 7:02 AM CST 5:35 PM CST
Nautical Twilight 6:25 AM CST 6:12 PM CST
Astronomical Twilight 5:49 AM CST 6:48 PM CST
Moon 7:08 PM CST (1/28) 7:51 AM CST (1/28)
Length of Visible Light 10h 32m
Length of Day
9h 26m
Full, 98% of the Moon is Illuminated
Jan 28
Full
Feb 3
Last Quarter
Feb 10
New
Feb 17
First Quarter
Feb 25
Full

Hourly Weather History & Observations

Time (CST) Temp. Windchill Dew Point Humidity Pressure Visibility Wind Dir Wind Speed Gust Speed Precip Events Conditions
12:13 AM 28.4 °F - 26.6 °F 93% 29.82 in 3.0 mi Calm Calm - N/A Snow Light Snow
12:33 AM 28.4 °F - 26.6 °F 93% 29.82 in 1.8 mi Calm Calm - N/A Snow Light Snow
12:53 AM 28.4 °F - 26.6 °F 93% 29.81 in 1.5 mi Calm Calm - N/A Snow Light Snow
1:13 AM 28.4 °F - 26.6 °F 93% 29.80 in 1.0 mi Calm Calm - 0.01 in Snow Snow
1:33 AM 28.4 °F - 26.6 °F 93% 29.80 in 1.2 mi Calm Calm - 0.02 in Snow Light Snow
1:53 AM 28.4 °F - 26.6 °F 93% 29.80 in 1.5 mi Calm Calm - N/A   Overcast
2:13 AM 28.4 °F - 26.6 °F 93% 29.80 in 1.5 mi Calm Calm - 0.01 in   Overcast
2:53 AM 28.4 °F - 24.8 °F 86% 29.79 in 2.0 mi Calm Calm - 0.01 in Snow Light Snow
3:13 AM 28.4 °F - 24.8 °F 86% 29.80 in 3.0 mi Calm Calm - 0.01 in Snow Light Snow
3:33 AM 28.4 °F - 24.8 °F 86% 29.80 in 3.0 mi Calm Calm - 0.01 in Snow Light Snow
3:53 AM 26.6 °F - 24.8 °F 93% 29.79 in 4.0 mi Calm Calm - N/A Snow Light Snow
4:13 AM 26.6 °F - 24.8 °F 93% 29.80 in 4.0 mi Calm Calm - N/A   Scattered Clouds
4:33 AM 26.6 °F - 23.0 °F 86% 29.80 in 5.0 mi Calm Calm - N/A   Scattered Clouds
4:53 AM 24.8 °F - 23.0 °F 93% 29.80 in 5.0 mi Calm Calm - N/A   Scattered Clouds
5:13 AM 24.8 °F - 23.0 °F 93% 29.78 in 5.0 mi Calm Calm - N/A   Mostly Cloudy
5:33 AM 24.8 °F - 21.2 °F 86% 29.79 in 4.0 mi Calm Calm - N/A   Mostly Cloudy
5:53 AM 24.8 °F - 21.2 °F 86% 29.79 in 7.0 mi Calm Calm - N/A   Overcast
6:13 AM 26.6 °F - 23.0 °F 86% 29.80 in 10.0 mi Calm Calm - N/A   Overcast
6:33 AM 26.6 °F - 23.0 °F 86% 29.81 in 7.0 mi Calm Calm - N/A   Mostly Cloudy
6:53 AM 26.6 °F - 23.0 °F 86% 29.81 in 7.0 mi Calm Calm - N/A   Scattered Clouds
7:13 AM 26.6 °F - 23.0 °F 86% 29.81 in 7.0 mi Calm Calm - N/A   Scattered Clouds
7:33 AM 26.6 °F - 24.8 °F 93% 29.83 in 10.0 mi Calm Calm - N/A   Mostly Cloudy
7:53 AM 26.6 °F - 24.8 °F 93% 29.82 in 10.0 mi Calm Calm - N/A   Scattered Clouds
8:13 AM 26.6 °F - 24.8 °F 93% 29.81 in 7.0 mi Calm Calm - N/A   Scattered Clouds
8:33 AM 26.6 °F - 24.8 °F 93% 29.83 in 7.0 mi Calm Calm - N/A   Clear
8:53 AM 28.4 °F - 26.6 °F 93% 29.83 in 7.0 mi Calm Calm - N/A   Scattered Clouds
9:13 AM 28.4 °F - 24.8 °F 86% 29.83 in 7.0 mi Calm Calm - N/A   Scattered Clouds
9:33 AM 30.2 °F - 26.6 °F 86% 29.84 in 10.0 mi Calm Calm - N/A   Clear
9:53 AM 32.0 °F - 26.6 °F 80% 29.84 in 10.0 mi Calm Calm - N/A   Clear
10:13 AM 32.0 °F - 26.6 °F 80% 29.84 in 10.0 mi Calm Calm - N/A   Scattered Clouds
10:33 AM 32.0 °F - 24.8 °F 75% 29.85 in 10.0 mi Calm Calm - N/A   Mostly Cloudy
10:53 AM 32.0 °F - 26.6 °F 80% 29.86 in 10.0 mi Calm Calm - N/A   Mostly Cloudy
11:13 AM 33.8 °F - 26.6 °F 75% 29.85 in 10.0 mi Calm Calm - N/A   Mostly Cloudy
11:33 AM 32.0 °F - 26.6 °F 80% 29.85 in 10.0 mi Calm Calm - N/A   Mostly Cloudy
11:53 AM 33.8 °F - 26.6 °F 75% 29.85 in 10.0 mi Calm Calm - N/A   Scattered Clouds
12:13 PM 32.0 °F 28.7 °F 24.8 °F 75% 29.85 in 10.0 mi South 3.5 mph - N/A   Scattered Clouds
12:33 PM 32.0 °F 26.4 °F 23.0 °F 69% 29.83 in 10.0 mi SSE 5.8 mph - N/A   Clear
12:53 PM 30.2 °F - 23.0 °F 75% 29.82 in 10.0 mi Calm Calm - N/A   Scattered Clouds
1:13 PM 30.2 °F - 24.8 °F 80% 29.81 in 10.0 mi Calm Calm - N/A   Mostly Cloudy
1:33 PM 30.2 °F 26.7 °F 23.0 °F 75% 29.81 in 10.0 mi ESE 3.5 mph - N/A   Scattered Clouds
1:53 PM 30.2 °F 25.4 °F 23.0 °F 75% 29.82 in 10.0 mi SSE 4.6 mph - N/A   Scattered Clouds
2:13 PM 32.0 °F 28.7 °F 23.0 °F 69% 29.82 in 10.0 mi South 3.5 mph - N/A   Scattered Clouds
2:33 PM 30.2 °F 23.4 °F 24.8 °F 80% 29.83 in 10.0 mi SSW 6.9 mph - N/A   Mostly Cloudy
2:53 PM 30.2 °F 23.4 °F 24.8 °F 80% 29.83 in 10.0 mi SSW 6.9 mph - N/A   Mostly Cloudy
3:13 PM 30.2 °F 24.3 °F 24.8 °F 80% 29.83 in 10.0 mi SW 5.8 mph - N/A   Mostly Cloudy
3:34 PM 28.4 °F 24.6 °F 24.8 °F 86% 29.84 in 10.0 mi SSW 3.5 mph - N/A   Mostly Cloudy
3:53 PM 28.4 °F 24.6 °F 24.8 °F 86% 29.83 in 10.0 mi SW 3.5 mph - N/A   Overcast
4:13 PM 28.4 °F 24.6 °F 24.8 °F 86% 29.83 in 10.0 mi South 3.5 mph - N/A   Overcast
4:33 PM 28.4 °F - 24.8 °F 86% 29.82 in 10.0 mi Calm Calm - N/A   Mostly Cloudy
4:53 PM 28.4 °F - 24.8 °F 86% 29.82 in 10.0 mi Calm Calm - N/A   Mostly Cloudy
5:13 PM 28.4 °F - 24.8 °F 86% 29.82 in 10.0 mi Calm Calm - N/A   Scattered Clouds
5:33 PM 28.4 °F - 24.8 °F 86% 29.82 in 10.0 mi Calm Calm - N/A   Scattered Clouds
5:53 PM 28.4 °F - 24.8 °F 86% 29.80 in 10.0 mi Calm Calm - N/A   Mostly Cloudy
6:13 PM 28.4 °F - 24.8 °F 86% 29.81 in 7.0 mi Calm Calm - N/A   Scattered Clouds
6:33 PM 28.4 °F - 24.8 °F 86% 29.80 in 10.0 mi Calm Calm - N/A   Scattered Clouds
6:53 PM 28.4 °F - 24.8 °F 86% 29.82 in 10.0 mi Calm Calm - N/A   Mostly Cloudy
7:13 PM 28.4 °F - 24.8 °F 86% 29.82 in 10.0 mi Calm Calm - N/A   Mostly Cloudy
7:33 PM 28.4 °F - 24.8 °F 86% 29.81 in 10.0 mi Calm Calm - N/A   Mostly Cloudy
7:53 PM 28.4 °F - 24.8 °F 86% 29.81 in 10.0 mi Calm Calm - N/A   Mostly Cloudy
8:13 PM 28.4 °F - 24.8 °F 86% 29.79 in 10.0 mi Calm Calm - N/A   Overcast
8:33 PM 28.4 °F - 24.8 °F 86% 29.79 in 10.0 mi Calm Calm - N/A   Overcast
8:54 PM 28.4 °F - 24.8 °F 86% 29.78 in 7.0 mi Calm Calm - N/A   Overcast
9:13 PM 28.4 °F - 24.8 °F 86% 29.78 in 10.0 mi Calm Calm - N/A   Overcast
9:33 PM 28.4 °F - 24.8 °F 86% 29.78 in 10.0 mi Calm Calm - N/A   Overcast
9:53 PM 28.4 °F - 24.8 °F 86% 29.76 in 10.0 mi Calm Calm - N/A   Overcast
10:13 PM 28.4 °F 24.6 °F 24.8 °F 86% 29.74 in 10.0 mi East 3.5 mph - N/A   Overcast
10:33 PM 28.4 °F 23.3 °F 24.8 °F 86% 29.72 in 10.0 mi ENE 4.6 mph - N/A   Overcast
10:53 PM 28.4 °F 24.6 °F 24.8 °F 86% 29.72 in 10.0 mi East 3.5 mph - N/A   Overcast
11:13 PM 28.4 °F - 24.8 °F 86% 29.73 in 10.0 mi Calm Calm - N/A   Overcast
11:33 PM 28.4 °F - 24.8 °F 86% 29.72 in 10.0 mi Calm Calm - N/A   Mostly Cloudy
11:53 PM 28.4 °F 23.3 °F 24.8 °F 86% 29.69 in 10.0 mi ENE 4.6 mph - N/A   Mostly Cloudy